Location: Klinovec
(50.3970°N, 12.9600°E)
Time: 13:51:45
(UTC+01:00)

N. Korean satellite - Pass Details

Date: 20 November 2019
Orbit: 456 x 506 km, 97.2° (Epoch: 07 December)

Event Time Altitude Azimuth Distance (km) Brightness Sun altitude
Rises 06:40:04 0° 7° (N) 2,623 10.1 -7.9°
Reaches altitude 10° 06:42:14 10° 1° (N) 1,729 9.2 -7.6°
Maximum altitude 06:45:46 43° 289° (WNW) 723 7.0 -7.1°
Drops below altitude 10° 06:49:15 10° 218° (SW) 1,697 9.2 -6.6°
Sets 06:51:22 0° 211° (SSW) 2,568 10.2 -6.3°
